{"data":{"norad_id":47400,"epoch":"2026-09-19T12:20:24.869472Z","epoch_age_seconds":110941,"freshness":"FRESH","line1":"1 47400U 21005BD  26262.51417673  .00000095  00000+0  14831-4 0  9999","line2":"2 47400  53.1600 191.5043 0001323  89.7312 270.3841 15.31699891313424","mean_motion":15.31699891,"eccentricity":0.0001323,"inclination_deg":53.16,"raan_deg":191.5043,"arg_perigee_deg":89.7312,"mean_anomaly_deg":270.3841,"bstar":1.4831e-5,"rev_number":31342,"period_min":94.013194651327,"perigee_km":469.83421367954,"apogee_km":471.64642661845,"semimajor_km":6848.877320149,"source":"CELESTRAK","updated_at":"2026-09-20T09:00:38.595334Z"}}